Temp
-15 -15 -15 -15 -16 -16 -16 -16 -16 -15 -15 -15 -16 -16 -15 -15 -15 -15 -15 -15 -15 -15 -15 -15 -15 -14 -14 -14 -14 -14 -14 -14 -15 -15 -15 -15 -15 -15 -15 -15 -15 -15
-15 -15 -16 -16 -16 -16 -16 -16 -16 -15 -15 -15 -16 -15 -15 -15 -15 -15 -15 -15 -15 -15 -15 -15 -14 -14 -14 -14 -14 -14 -15 -15 -15 -15 -15 -15 -15 -15 -15 -15 -15 -15
-15 -16 -16 -16 -16 -15 -16 -16 -16 -16 -15 -15 -16 -15 -15 -15 -15 -15 -15 -15 -15 -15 -15 -15 -14 -14 -14 -14 -14 -14 -15 -15 -15 -15 -15 -15 -15 -15 -15 -15 -15 -15
-15 -15 -15 -15 -15 -15 -16 -16 -16 -16 -15 -15 -16 -15 -15 -15 -15 -15 -15 -15 -15 -15 -15 -15 -15 -14 -14 -14 -14 -14 -14 -15 -15 -15 -15 -15 -16 -16 -16 -15 -15 -15
-15 -15 -15 -15 -15 -15 -15 -15 -16 -16 -16 -16 -16 -15 -15 -15 -15 -15 -15 -15 -15 -15 -15 -15 -15 -15 -14 -14 -14 -14 -14 -15 -15 -15 -16 -16 -16 -16 -16 -16 -16 -16
-15 -15 -15 -15 -15 -15 -15 -15 -15 -15 -16 -16 -16 -16 -16 -16 -16 -15 -15 -15 -15 -15 -15 -15 -15 -15 -15 -15 -14 -14 -15 -15 -15 -16 -16 -16 -16 -16 -16 -16 -16 -16
-15 -15 -15 -15 -15 -15 -15 -15 -15 -15 -16 -16 -16 -16 -16 -16 -16 -16 -16 -16 -16 -15 -15 -15 -15 -15 -15 -15 -15 -15 -15 -15 -15 -16 -16 -16 -16 -16 -16 -17 -16 -16
-15 -15 -15 -15 -15 -15 -15 -15 -15 -15 -15 -16 -16 -16 -16 -16 -16 -16 -16 -16 -16 -16 -16 -15 -15 -15 -15 -15 -15 -15 -15 -16 -16 -16 -16 -16 -16 -16 -16 -17 -17 -17
-16 -16 -16 -16 -16 -16 -16 -15 -15 -15 -15 -15 -16 -16 -16 -16 -16 -16 -16 -16 -16 -16 -16 -16 -16 -16 -15 -15 -15 -15 -16 -16 -16 -16 -16 -16 -16 -16 -16 -16 -17 -17
-16 -16 -16 -16 -16 -16 -16 -16 -15 -16 -16 -15 -15 -16 -16 -16 -17 -16 -16 -16 -16 -16 -16 -16 -16 -16 -16 -16 -16 -16 -16 -16 -16 -16 -16 -16 -16 -16 -16 -17 -17 -17
-16 -16 -16 -16 -16 -16 -16 -16 -16 -16 -16 -16 -15 -15 -16 -16 -16 -17 -17 -16 -16 -16 -16 -16 -16 -16 -16 -16 -16 -16 -16 -16 -16 -16 -16 -16 -16 -16 -17 -17 -17 -17
-16 -16 -16 -16 -16 -16 -16 -16 -16 -16 -16 -16 -16 -16 -16 -16 -16 -17 -17 -17 -17 -17 -17 -16 -16 -16 -16 -16 -16 -16 -16 -16 -16 -16 -17 -17 -17 -17 -17 -17 -17 -17
-16 -16 -16 -16 -16 -16 -16 -16 -16 -16 -16 -16 -16 -16 -16 -16 -17 -17 -17 -17 -17 -17 -17 -17 -17 -16 -16 -16 -16 -17 -17 -17 -17 -17 -17 -17 -17 -17 -17 -17 -17 -17
-16 -16 -16 -16 -16 -16 -16 -16 -16 -16 -16 -16 -16 -17 -17 -16 -17 -17 -17 -17 -17 -17 -17 -17 -17 -17 -17 -17 -17 -17 -17 -17 -17 -17 -17 -17 -17 -17 -17 -17 -17 -17
-16 -16 -16 -16 -16 -16 -16 -16 -16 -16 -17 -17 -17 -17 -17 -17 -17 -17 -17 -17 -17 -17 -18 -17 -17 -17 -17 -17 -17 -17 -17 -17 -17 -17 -17 -17 -17 -17 -17 -17 -17 -17
-16 -16 -16 -16 -16 -16 -17 -17 -17 -17 -17 -17 -17 -17 -17 -17 -17 -17 -17 -17 -17 -18 -18 -18 -18 -18 -17 -17 -17 -17 -17 -17 -17 -17 -17 -17 -17 -17 -17 -17 -17 -17
-16 -16 -16 -16 -16 -17 -17 -17 -17 -17 -17 -17 -17 -17 -17 -17 -18 -18 -18 -18 -18 -18 -18 -18 -18 -18 -18 -18 -18 -18 -18 -18 -18 -17 -17 -17 -17 -17 -17 -17 -17 -17
-16 -16 -16 -16 -17 -17 -17 -17 -17 -17 -17 -17 -17 -17 -17 -17 -18 -18 -18 -18 -18 -18 -18 -18 -18 -18 -18 -18 -18 -18 -18 -18 -18 -18 -18 -18 -18 -18 -18 -18 -18 -18
-17 -16 -16 -16 -17 -17 -17 -17 -17 -17 -17 -17 -17 -18 -18 -17 -17 -18 -18 -18 -18 -18 -18 -18 -18 -18 -18 -18 -18 -18 -18 -18 -18 -18 -18 -18 -18 -18 -18 -18 -18 -18
-17 -17 -17 -17 -17 -17 -17 -17 -18 -18 -18 -18 -18 -18 -18 -18 -18 -18 -18 -18 -18 -18 -18 -18 -18 -18 -18 -18 -18 -18 -18 -18 -18 -18 -18 -18 -18 -18 -18 -18 -18 -18
-17 -17 -17 -17 -17 -17 -17 -17 -18 -18 -18 -18 -18 -18 -18 -18 -18 -18 -18 -18 -18 -18 -18 -18 -18 -18 -18 -18 -18 -18 -18 -18 -18 -18 -18 -18 -18 -18 -18 -18 -18 -18
-17 -17 -17 -17 -17 -17 -17 -17 -17 -18 -18 -18 -18 -18 -18 -18 -18 -18 -18 -18 -18 -18 -18 -18 -18 -18 -18 -18 -18 -18 -18 -18 -18 -18 -18 -18 -18 -18 -18 -18 -18 -18
-17 -17 -17 -17 -17 -17 -17 -18 -18 -18 -18 -18 -18 -18 -18 -18 -18 -18 -18 -19 -19 -18 -18 -18 -18 -18 -18 -18 -18 -18 -18 -18 -18 -18 -18 -18 -18 -18 -18 -18 -18 -18
-17 -17 -17 -17 -17 -18 -18 -18 -18 -18 -18 -18 -18 -18 -18 -18 -18 -18 -18 -18 -19 -19 -19 -19 -19 -19 -19 -19 -19 -18 -18 -18 -18 -18 -18 -19 -19 -19 -19 -19 -19 -19
-17 -17 -17 -17 -17 -18 -18 -18 -18 -18 -18 -18 -18 -18 -18 -18 -18 -18 -18 -18 -19 -19 -19 -19 -19 -19 -19 -19 -19 -19 -19 -19 -19 -19 -19 -19 -19 -19 -19 -19 -19 -19
-18 -18 -18 -18 -18 -18 -18 -18 -18 -18 -18 -18 -19 -19 -19 -19 -19 -19 -19 -18 -19 -19 -19 -19 -19 -19 -19 -19 -19 -19 -19 -19 -19 -19 -19 -19 -19 -19 -19 -19 -20 -20
Height
5763 5763 5764 5765 5766 5767 5768 5769 5770 5771 5772 5772 5773 5774 5775 5776 5777 5778 5778 5778 5779 5780 5781 5781 5781 5781 5782 5782 5782 5782 5782 5782 5783 5783 5783 5784 5784 5785 5785 5785 5785 5785
5760 5761 5762 5763 5763 5764 5765 5767 5768 5769 5770 5771 5772 5773 5774 5775 5776 5776 5776 5777 5778 5779 5779 5780 5780 5780 5780 5780 5780 5780 5780 5780 5781 5782 5782 5783 5783 5783 5784 5784 5784 5784
5758 5759 5759 5760 5760 5761 5763 5764 5766 5767 5768 5769 5770 5772 5773 5774 5775 5775 5775 5776 5776 5777 5777 5778 5778 5778 5778 5778 5778 5778 5778 5778 5779 5780 5781 5781 5782 5782 5783 5783 5783 5783
5755 5756 5756 5757 5758 5759 5760 5762 5763 5765 5766 5767 5768 5770 5771 5772 5773 5773 5774 5774 5775 5776 5776 5776 5777 5777 5777 5776 5776 5776 5776 5777 5777 5778 5779 5779 5780 5780 5781 5781 5781 5781
5753 5754 5756 5757 5758 5759 5760 5761 5762 5763 5764 5765 5766 5768 5769 5770 5771 5772 5772 5773 5773 5774 5775 5775 5775 5775 5775 5775 5774 5774 5775 5775 5775 5776 5777 5777 5778 5779 5779 5779 5779 5779
5754 5754 5756 5757 5757 5758 5759 5760 5761 5762 5762 5763 5764 5766 5767 5768 5769 5770 5771 5771 5772 5773 5773 5773 5774 5774 5774 5773 5773 5773 5773 5773 5774 5774 5775 5775 5776 5777 5777 5778 5777 5777
5753 5754 5755 5756 5756 5757 5758 5759 5759 5760 5761 5762 5763 5764 5765 5767 5767 5768 5769 5770 5771 5771 5772 5772 5772 5772 5772 5772 5772 5772 5772 5772 5772 5773 5773 5774 5774 5775 5776 5776 5776 5776
5751 5751 5753 5754 5754 5755 5756 5757 5758 5759 5760 5760 5761 5762 5763 5765 5765 5766 5767 5768 5769 5769 5770 5770 5770 5771 5771 5771 5771 5771 5771 5771 5771 5771 5772 5772 5772 5773 5773 5774 5774 5774
5748 5749 5750 5751 5752 5753 5754 5755 5756 5757 5758 5759 5759 5760 5761 5762 5763 5764 5765 5765 5766 5767 5767 5768 5768 5769 5769 5769 5769 5769 5769 5770 5770 5770 5770 5770 5770 5770 5770 5771 5771 5772
5745 5747 5749 5750 5751 5752 5752 5754 5755 5756 5756 5757 5757 5758 5759 5760 5760 5761 5762 5763 5763 5764 5765 5766 5766 5767 5767 5767 5767 5767 5767 5767 5767 5767 5767 5767 5767 5768 5768 5768 5768 5769
5743 5745 5747 5748 5749 5750 5751 5752 5753 5754 5754 5754 5755 5756 5756 5757 5758 5758 5759 5760 5761 5762 5763 5763 5764 5764 5765 5765 5765 5765 5765 5765 5765 5765 5765 5765 5765 5765 5765 5766 5766 5766
5742 5744 5745 5746 5747 5748 5749 5750 5750 5751 5752 5753 5754 5754 5754 5754 5755 5756 5756 5757 5758 5759 5760 5760 5761 5762 5762 5762 5763 5763 5763 5763 5763 5763 5763 5763 5763 5763 5764 5764 5764 5764
5742 5742 5743 5744 5744 5745 5745 5747 5747 5748 5750 5751 5751 5752 5752 5752 5753 5753 5753 5754 5755 5756 5757 5757 5758 5759 5759 5760 5760 5760 5760 5760 5761 5761 5761 5761 5762 5762 5762 5762 5762 5763
5740 5741 5741 5742 5742 5742 5743 5744 5744 5745 5747 5748 5748 5749 5749 5750 5750 5750 5751 5751 5752 5753 5753 5754 5755 5755 5756 5756 5757 5757 5758 5758 5758 5759 5759 5759 5760 5760 5760 5760 5760 5760
5737 5738 5739 5739 5739 5739 5740 5741 5742 5743 5743 5744 5745 5746 5747 5747 5747 5748 5748 5748 5749 5749 5750 5751 5751 5752 5753 5753 5754 5755 5755 5755 5756 5756 5756 5756 5757 5757 5757 5757 5757 5757
5733 5734 5736 5736 5735 5736 5736 5738 5738 5739 5740 5741 5742 5743 5743 5744 5745 5745 5745 5746 5746 5747 5747 5748 5748 5749 5750 5751 5751 5752 5752 5753 5753 5753 5753 5753 5754 5754 5754 5753 5753 5753
5729 5731 5732 5732 5731 5732 5732 5733 5734 5735 5736 5737 5738 5739 5740 5741 5742 5743 5744 5744 5744 5744 5745 5745 5746 5746 5747 5748 5749 5749 5749 5750 5750 5750 5750 5750 5750 5750 5750 5750 5750 5750
5726 5728 5729 5728 5728 5729 5729 5729 5730 5731 5733 5734 5735 5736 5737 5738 5739 5740 5741 5742 5742 5742 5742 5743 5743 5744 5744 5745 5745 5746 5746 5746 5746 5746 5746 5747 5747 5746 5746 5746 5746 5746
5722 5724 5725 5725 5725 5726 5726 5726 5726 5728 5730 5731 5732 5733 5734 5735 5736 5737 5738 5739 5740 5740 5740 5739 5740 5740 5741 5742 5742 5742 5742 5743 5743 5743 5743 5743 5743 5743 5743 5743 5743 5743
5719 5721 5721 5721 5722 5723 5724 5723 5723 5724 5726 5728 5729 5730 5731 5732 5733 5734 5735 5735 5736 5736 5736 5736 5737 5737 5737 5738 5738 5738 5738 5739 5739 5739 5739 5739 5739 5739 5739 5739 5739 5739
5717 5718 5719 5719 5719 5720 5721 5721 5721 5721 5722 5723 5725 5726 5727 5728 5729 5730 5731 5732 5732 5733 5733 5733 5733 5733 5733 5734 5734 5734 5734 5734 5734 5735 5735 5735 5735 5734 5734 5734 5734 5734
5716 5717 5718 5717 5717 5718 5719 5719 5719 5719 5719 5720 5720 5721 5723 5725 5726 5726 5727 5728 5728 5729 5729 5729 5729 5729 5729 5729 5729 5729 5729 5729 5730 5730 5730 5730 5730 5730 5730 5729 5729 5729
5714 5715 5716 5715 5715 5716 5716 5716 5716 5716 5716 5717 5717 5718 5719 5721 5722 5722 5722 5723 5723 5724 5724 5724 5724 5724 5725 5725 5724 5724 5724 5725 5725 5725 5725 5725 5725 5724 5724 5724 5724 5724
5711 5712 5712 5712 5713 5713 5713 5713 5714 5714 5714 5714 5714 5715 5715 5716 5718 5718 5718 5719 5719 5719 5720 5720 5720 5719 5720 5720 5719 5719 5720 5720 5720 5720 5720 5720 5720 5720 5719 5719 5719 5719
5708 5708 5709 5709 5709 5709 5710 5709 5709 5709 5710 5710 5710 5711 5711 5712 5713 5713 5714 5714 5714 5714 5715 5715 5714 5714 5714 5714 5714 5714 5714 5715 5714 5715 5715 5714 5714 5714 5714 5714 5714 5713
5703 5704 5705 5705 5705 5706 5707 5707 5705 5705 5705 5705 5705 5706 5707 5707 5707 5708 5708 5708 5708 5709 5709 5709 5708 5708 5708 5708 5708 5707 5708 5708 5708 5708 5708 5707 5707 5708 5708 5708 5708 5707
Wind_Speed
26 28 28 28 27 26 24 21 18 16 16 15 15 14 14 13 13 12 12 12 11 11 11 12 12 12 12 13 13 13 13 13 11 10 10 10 9 9 10 10 11 12
24 26 26 25 25 24 23 21 19 18 17 16 15 15 14 13 13 13 12 12 12 11 11 11 12 12 11 11 11 11 11 11 11 10 10 10 10 10 10 10 11 12
22 22 22 21 21 21 21 21 20 19 18 17 16 15 14 14 14 13 13 12 12 12 12 11 10 10 10 10 9 8 8 9 9 10 10 11 11 10 10 11 12 13
19 19 19 18 19 19 20 21 20 19 18 17 16 15 14 14 14 14 13 13 12 12 12 11 10 9 9 9 8 7 6 6 7 7 8 9 10 10 10 11 12 12
18 16 15 15 16 18 18 18 17 17 17 17 16 15 15 14 14 14 14 13 13 13 13 12 10 9 9 9 7 6 5 5 5 5 6 7 8 9 10 11 12 13
17 16 14 14 15 17 17 15 14 14 14 15 15 15 15 14 15 14 14 14 13 13 13 13 12 11 11 10 8 6 5 5 5 5 5 6 6 7 9 10 12 13
19 17 16 16 16 17 17 15 14 13 14 14 15 15 14 14 15 15 14 15 15 14 14 14 13 12 12 11 9 7 6 5 5 5 5 5 6 6 8 9 11 12
20 19 18 18 18 18 18 17 16 15 15 16 16 16 15 15 16 16 16 16 16 15 15 14 14 13 12 11 9 7 6 6 5 6 6 6 7 7 8 8 10 11
21 21 20 20 19 19 20 20 19 18 18 18 18 18 17 17 18 18 18 18 17 16 15 15 14 13 12 11 10 8 7 7 7 7 7 7 8 8 8 9 9 9
24 23 22 21 20 20 22 22 21 21 21 21 21 20 19 19 19 20 19 19 18 16 15 15 15 15 14 13 12 11 10 9 9 8 8 8 9 9 9 9 9 9
24 24 22 20 19 21 24 24 23 24 24 23 22 21 20 20 20 21 21 19 18 17 17 17 16 16 16 16 15 13 12 11 11 10 10 10 10 10 10 10 10 10
23 23 22 20 20 22 23 24 25 26 25 24 23 23 22 21 20 21 21 20 19 18 18 18 18 18 17 17 16 15 14 13 13 12 11 11 12 12 12 12 11 11
21 22 22 23 24 25 24 24 25 25 24 23 24 24 23 21 21 21 21 20 19 18 18 18 19 19 18 17 17 16 15 15 14 13 13 13 14 15 15 14 14 14
20 20 21 23 26 27 27 25 24 23 22 23 23 23 23 23 22 22 22 20 20 19 19 19 20 20 19 19 18 18 17 16 16 16 16 16 17 17 17 17 17 17
21 21 21 22 26 28 28 26 25 25 25 25 23 23 24 24 24 24 23 22 21 21 20 20 21 21 20 20 19 19 19 19 19 19 19 19 19 19 20 19 19 19
23 22 21 22 24 27 28 27 27 28 27 26 25 24 25 26 26 25 24 24 23 22 21 21 21 21 21 21 20 20 20 21 21 21 21 21 21 21 21 21 21 20
23 21 20 21 21 22 24 26 27 26 24 25 26 26 27 27 27 26 25 25 24 24 23 22 22 22 22 23 23 23 23 23 23 23 23 24 24 23 23 23 23 22
22 21 21 20 17 16 19 22 24 22 21 23 26 27 28 28 27 26 25 25 25 25 24 23 23 23 24 24 25 25 25 25 26 26 26 26 26 26 25 25 25 25
24 22 22 21 18 16 17 19 22 22 21 22 23 23 24 26 26 26 26 26 26 25 25 25 25 25 25 26 27 27 28 28 29 29 29 29 28 28 28 28 28 28
25 24 24 24 23 21 20 21 23 24 23 22 22 23 24 26 26 26 26 26 26 26 27 26 26 26 27 28 29 30 30 30 31 31 31 31 31 31 31 31 31 31
27 26 26 27 26 25 25 26 27 26 26 25 26 27 29 29 28 27 26 26 26 27 27 27 27 28 29 30 31 32 32 32 32 33 33 33 34 34 34 35 35 36
27 27 28 29 29 28 29 30 30 29 29 30 31 31 30 29 28 26 25 25 26 27 29 30 31 31 31 32 33 34 34 35 35 36 37 37 37 38 38 38 39 40
27 27 28 30 30 30 30 30 29 30 31 32 33 32 31 30 30 30 30 30 30 30 32 34 35 36 36 36 36 36 36 37 38 39 40 41 42 42 42 42 43 43
28 29 31 32 32 31 31 30 30 30 32 33 34 34 33 33 34 35 37 38 37 35 35 37 39 40 40 39 39 39 40 41 42 43 44 45 45 45 46 47 47 46
29 30 31 32 32 32 32 32 33 33 34 35 36 37 37 38 38 39 41 42 42 41 40 40 42 43 43 43 43 43 44 44 45 46 47 48 48 48 48 49 49 49
30 30 31 32 33 33 33 34 36 36 37 37 38 39 40 41 42 43 43 44 45 45 45 45 46 47 47 47 47 47 48 48 49 50 50 51 51 51 51 51 51 51
Wind_Direction
219 223 227 228 229 232 232 228 224 217 206 200 200 203 208 211 214 220 227 230 229 227 228 234 239 241 241 246 249 249 248 246 246 249 252 255 260 266 273 276 277 277
218 221 225 225 227 232 230 222 216 209 202 200 200 202 205 210 212 216 223 229 231 233 233 234 239 243 245 247 247 244 242 242 245 248 252 257 263 270 274 274 272 271
214 216 218 219 222 224 218 210 206 202 199 200 203 204 206 210 211 214 221 226 230 235 237 233 233 238 242 243 237 229 225 229 236 243 251 259 265 269 268 266 264 263
215 216 217 218 218 215 205 198 198 199 199 202 206 209 210 214 215 215 220 225 228 232 234 234 235 239 242 240 229 218 215 218 227 238 248 257 262 265 267 266 264 264
221 223 223 222 218 209 200 195 198 202 204 207 211 213 214 218 221 220 222 225 229 232 234 236 240 244 244 241 234 227 223 221 227 238 249 257 263 268 270 268 266 265
231 232 230 227 221 214 208 207 212 218 220 221 221 221 220 223 227 226 226 228 231 236 239 240 243 247 246 243 242 242 241 235 234 240 248 255 259 263 264 263 263 263
238 237 234 231 228 225 224 227 233 236 237 237 237 235 231 230 233 233 231 233 237 241 246 246 247 248 248 245 242 240 241 241 241 242 246 248 250 250 251 253 256 258
240 238 238 237 237 237 239 242 245 245 244 245 245 244 239 234 235 236 236 237 240 245 251 253 253 251 249 244 239 236 239 244 247 250 251 251 252 250 247 246 249 252
242 241 241 241 243 245 247 248 249 247 246 246 247 247 243 236 234 235 236 238 241 247 254 259 259 256 252 248 245 244 244 247 251 250 250 251 253 252 248 245 244 245
237 240 242 245 247 251 253 253 252 250 248 247 248 250 246 240 235 234 236 240 244 250 258 264 263 259 255 254 253 251 248 249 253 252 252 253 254 254 251 248 246 245
234 237 241 247 254 259 260 259 257 254 251 249 248 251 251 245 239 238 240 244 249 256 262 263 262 257 255 254 253 251 251 253 256 258 258 260 260 260 259 258 257 255
241 240 244 256 263 265 264 262 257 253 252 252 251 252 254 251 246 244 245 249 254 257 258 256 254 252 251 250 251 252 253 255 258 260 261 262 263 264 265 265 265 265
248 245 252 267 272 269 267 264 258 252 250 253 255 255 253 251 248 247 248 250 251 248 247 246 247 246 246 246 247 249 252 255 257 259 261 263 265 266 268 269 272 273
250 250 259 270 272 267 264 261 256 249 248 251 254 256 253 250 249 248 248 247 244 240 240 241 242 242 243 243 245 247 250 253 256 258 261 263 265 267 269 272 274 276
253 254 260 266 265 259 255 254 251 251 253 253 251 251 250 249 248 248 246 243 239 236 236 239 242 244 245 246 248 252 254 257 260 262 264 266 267 270 272 274 276 279
260 257 262 266 263 253 249 251 252 253 256 255 251 248 247 248 248 245 242 240 238 236 236 238 242 246 250 252 254 256 259 261 263 265 267 268 270 271 273 275 278 281
261 261 264 265 259 250 248 251 252 252 254 253 251 248 246 247 246 244 241 240 239 238 238 241 245 249 254 257 258 259 260 262 263 265 266 267 269 270 271 274 276 280
254 255 258 256 247 242 249 252 248 245 249 253 253 252 249 246 243 240 240 241 242 243 244 246 249 252 255 258 259 260 261 262 263 265 266 267 268 268 269 272 274 277
249 248 248 244 238 233 241 247 246 244 248 251 252 252 249 246 243 239 239 242 244 247 248 249 250 252 255 258 260 261 262 263 264 265 267 267 267 268 270 272 274 274
253 251 246 241 237 234 233 237 243 247 247 245 243 241 240 241 241 240 241 243 245 247 248 249 251 253 256 259 260 262 262 263 264 265 266 266 267 268 269 271 274 275
256 255 252 248 244 243 244 246 247 248 246 243 240 238 237 238 237 238 240 243 247 251 253 256 258 259 261 262 262 262 262 262 262 263 264 265 266 267 269 271 273 274
257 257 259 258 257 257 259 259 258 255 251 248 246 245 244 242 237 236 240 246 252 257 260 262 263 263 264 264 264 264 264 264 263 263 265 267 268 268 270 271 272 272
256 258 259 261 263 265 266 266 265 262 258 254 252 251 251 247 240 238 244 254 260 261 261 263 264 264 264 264 265 266 267 266 266 266 268 270 271 271 272 273 275 275
256 259 260 263 265 266 267 267 267 266 264 261 258 257 256 254 250 248 253 260 265 264 262 263 265 265 265 265 266 267 267 267 268 268 270 272 273 274 274 275 277 278
259 261 263 264 264 264 265 265 265 265 265 264 262 260 260 260 260 259 260 264 266 265 264 264 265 266 266 266 267 267 267 267 267 268 269 271 273 273 274 274 274 274
263 265 264 259 257 258 261 263 263 265 267 267 266 263 262 261 261 261 262 264 265 264 264 265 268 268 266 266 266 267 267 267 267 268 268 269 270 271 272 272 272 270